Flag for Poland Weather past 2 weeks in Radom, Poland

Now
33 °F

Overcast.


Feels Like: 27 °F
Forecast: 31 / 42 °F
Wind: 6 mph from West

Location: Kielce

Current Time: Apr 2, 2015 at 6:32:08 AM

Latest Report: Apr 2, 2015 at 5:00 AM


Visibility: 17 mi

Pressure: 29.75 "Hg

Humidity: 86%

Dew point: 29 °F

Location of RadomLocation

Historic Weather in Radom — Graph

°F

Radom temperature yesterday

Maximum temperature yesterday: 41 °F (at 12:00 AM)
Minimum temperature yesterday: 34 °F (at 8:00 AM)
Average temperature yesterday: 38 °F

Past Weeks' High & Low Weather Summary

 TemperatureHumidityPressure
High65 °F (Mar 27, 11:00 AM)100% (Mar 29, 7:00 AM)30.60 "Hg (Mar 29, 7:00 AM)
Low18 °F (Mar 23, 6:00 AM)28% (Mar 23, 4:00 PM)29.26 "Hg (Mar 30, 6:00 AM)
Average41 °F72%29.94 "Hg
* Reported Mar 17 11:00 PM — Apr 1 11:00 PM, Radom, Weather by CustomWeather, © 2015

Note: Actual official high and low records may vary slightly from our data, if they occured in-between our weather recording intervals... More about our weather records

Advertising

Radom weather history for previous 24 hours

 ConditionsComfort  
Time TempWeatherWind HumidityBarometerVisibility
11:00 PM
Wed, Apr 1
35 °FSnow flurries. Overcast.6 mph85%29.71 "Hg6 mi
10:00 PM35 °FPassing clouds.5 mph89%29.71 "Hg19 mi
9:00 PM35 °FRain showers. Overcast.7 mph90%29.69 "Hg9 mi
8:00 PM36 °FPassing clouds.5 mph84%29.67 "Hg12 mi
7:00 PM38 °FOvercast.7 mph79%29.66 "Hg7 mi
6:00 PM37 °FLow clouds.5 mph84%29.64 "Hg16 mi
5:00 PM37 °FOvercast.9 mph85%29.64 "Hg9 mi
4:00 PM37 °FRain showers. Overcast.8 mph85%29.62 "Hg2 mi
3:00 PM37 °FSprinkles. Low clouds.8 mph90%29.62 "Hg9 mi
2:00 PM39 °FLight rain. Low clouds.7 mph90%29.59 "Hg6 mi
1:00 PM38 °FLight rain. Low clouds.7 mph90%29.57 "Hg5 mi
12:00 PM38 °FLight rain. Low clouds.7 mph92%29.56 "Hg6 mi
11:00 AM36 °FRain. Low clouds.8 mph92%29.54 "Hg2 mi
10:00 AM36 °FLight rain. Low clouds.9 mph92%29.50 "Hg3 mi
9:00 AM35 °FLight rain. Low clouds.9 mph94%29.47 "Hg2 mi
8:00 AM34 °FLight rain. Low clouds.8 mph94%29.44 "Hg2 mi
7:00 AM37 °FSprinkles. Overcast.10 mph78%29.41 "Hg2 mi
6:00 AM38 °FSprinkles. Overcast.12 mph68%29.38 "Hg14 mi
Weather by CustomWeather, © 2015

See weather overviewHow to use our weather pages